DW4743 Weather Reports


time (UTC)temp
F
wind
direction
speed
knots
gust
knots
rain 1hr
in
rain 24hr
in
rain mn
in
humidity
%
barometer
mb
20260507015808 42 154 0.9 0.9 0.00 0.01 0.00 100 1012.4
20260507015309 42 16 0.0 0.9 0.00 0.01 0.00 100 1012.4
20260507014808 42 63 0.0 1.7 0.00 0.01 0.00 100 1012.4
20260507013808 43 221 0.9 1.7 0.00 0.01 0.00 100 1012.5
20260507012808 43 236 0.9 2.6 0.00 0.01 0.00 100 1012.5
20260507011807 43 242 1.7 2.6 0.00 0.01 0.00 100 1012.6
20260507011308 44 229 0.9 0.9 0.00 0.01 0.00 100 1012.6
20260507010808 44 204 0.0 0.9 0.00 0.01 0.00 100 1012.7
20260507010308 44 45 0.0 0.9 0.00 0.01 0.00 100 1012.8
20260507005308 45 145 0.0 2.6 0.00 0.01 0.00 100 1012.9
20260507004311 45 155 0.9 1.7 0.00 0.01 0.00 100 1013.0
20260507001309 45 147 2.6 2.6 0.00 0.01 0.00 100 1013.1
20260506235808 46 179 0.9 1.7 0.00 0.01 0.00 100 1013.3
20260506235308 46 175 0.9 1.7 0.00 0.01 0.00 100 1013.3
20260506234808 46 183 0.0 0.9 0.00 0.01 0.00 100 1013.4
20260506234308 46 241 0.0 1.7 0.00 0.01 0.00 100 1013.4
20260506230808 46 278 1.7 2.6 0.00 0.01 0.00 100 1013.8
20260506225807 46 271 1.7 2.6 0.00 0.01 0.00 100 1013.8
20260506223308 46 298 0.9 1.7 0.00 0.01 0.00 100 1013.9
20260506222307 46 271 0.9 1.7 0.00 0.01 0.00 100 1014.1
20260506221808 46 263 0.9 1.7 0.00 0.01 0.00 100 1014.1
20260506221308 46 292 0.9 1.7 0.00 0.01 0.00 100 1014.2
20260506215307 47 5 2.6 2.6 0.00 0.01 0.01 100 1014.3
20260506214810 47 6 2.6 2.6 0.00 0.01 0.01 100 1014.3
20260506213808 47 9 1.7 2.6 0.00 0.01 0.01 100 1014.3
20260506213308 48 342 1.7 2.6 0.00 0.01 0.01 100 1014.3
20260506212808 48 6 1.7 2.6 0.00 0.01 0.01 100 1014.3
20260506212308 48 33 1.7 4.3 0.00 0.01 0.01 100 1014.2
20260506211808 48 41 2.6 5.2 0.00 0.01 0.01 100 1014.2
20260506211308 48 44 2.6 6.1 0.00 0.01 0.01 100 1014.2
20260506210808 47 51 4.3 6.1 0.00 0.01 0.01 100 1014.2
20260506205307 47 16 2.6 4.3 0.00 0.01 0.01 100 1014.1
20260506203308 48 354 3.5 5.2 0.00 0.01 0.01 99 1014.0
20260506202808 48 356 4.3 5.2 0.00 0.01 0.01 99 1014.0
20260506202307 48 11 4.3 5.2 0.00 0.01 0.01 99 1013.9
20260506201808 48 30 2.6 4.3 0.00 0.01 0.01 99 1013.9
20260506201308 48 46 2.6 5.2 0.00 0.01 0.01 99 1013.9
20260506200808 48 47 4.3 5.2 0.00 0.01 0.01 99 1013.8
20260506200307 48 38 2.6 7.0 0.00 0.01 0.01 99 1013.8
20260506195808 48 60 4.3 7.0 0.00 0.01 0.01 99 1013.8
20260506194808 49 58 4.3 7.0 0.00 0.01 0.01 99 1013.8
20260506194308 49 44 5.2 10.4 0.00 0.01 0.01 99 1013.7
20260506193807 49 37 6.1 11.3 0.00 0.01 0.01 99 1013.7
20260506193308 50 51 6.1 12.2 0.00 0.01 0.01 99 1013.6
20260506192808 50 54 7.8 13.0 0.00 0.01 0.01 99 1013.5
20260506191308 51 58 10.4 17.4 0.00 0.01 0.01 100 1013.5
20260506190307 52 45 10.4 18.2 0.00 0.01 0.01 100 1013.3
20260506185808 53 44 12.2 18.2 0.00 0.01 0.01 100 1013.2
20260506184807 54 53 10.4 19.1 0.00 0.01 0.01 100 1013.2
20260506183808 54 56 12.2 19.1 0.00 0.01 0.01 100 1013.2
20260506182807 55 52 14.8 17.4 0.00 0.01 0.01 100 1013.1
20260506181308 55 59 10.4 19.1 0.00 0.01 0.01 100 1013.2
20260506180307 56 1 7.0 10.4 0.00 0.01 0.01 100 1013.1
20260506175807 56 346 7.0 10.4 0.00 0.01 0.01 100 1013.1
20260506175308 56 6 6.1 10.4 0.00 0.01 0.01 100 1013.2
20260506173807 56 20 7.0 10.4 0.00 0.01 0.01 99 1013.2
20260506172807 56 27 7.0 13.0 0.00 0.01 0.01 96 1013.1
20260506172308 56 20 7.8 14.8 0.00 0.01 0.01 95 1013.1
20260506171308 58 51 13.0 14.8 0.00 0.01 0.01 92 1013.2
20260506170807 59 55 10.4 13.9 0.00 0.01 0.01 92 1013.1
20260506170307 60 25 10.4 13.0 0.00 0.01 0.01 91 1013.2
20260506165808 60 7 7.8 13.9 0.00 0.01 0.01 92 1013.1
20260506163807 59 337 8.7 13.0 0.00 0.01 0.01 93 1013.4
20260506162807 57 312 10.4 13.0 0.00 0.01 0.01 95 1013.5
20260506162307 57 312 8.7 13.0 0.00 0.01 0.01 93 1013.5
20260506161808 57 321 9.6 14.8 0.00 0.01 0.01 93 1013.5
20260506161307 57 319 9.6 14.8 0.00 0.01 0.01 92 1013.5
20260506160808 58 310 12.2 13.9 0.00 0.01 0.01 92 1013.5
20260506160307 58 350 9.6 13.0 0.00 0.01 0.01 93 1013.5
20260506155807 59 0 8.7 12.2 0.00 0.01 0.01 94 1013.5
20260506155308 58 336 7.8 14.8 0.00 0.01 0.01 94 1013.6
20260506154807 58 302 10.4 14.8 0.00 0.02 0.01 95 1013.6
20260506154309 57 334 9.6 15.6 0.00 0.02 0.01 94 1013.6
20260506153307 57 10 7.8 13.0 0.00 0.02 0.01 96 1013.7
20260506150807 57 18 6.1 12.2 0.00 0.02 0.01 94 1014.1
20260506145807 58 29 8.7 13.0 0.00 0.13 0.01 97 1014.3
20260506145307 58 350 9.6 13.0 0.00 0.22 0.01 97 1014.3
20260506144307 57 311 10.4 13.9 0.00 0.24 0.01 100 1014.4
20260506143807 56 307 11.3 13.9 0.00 0.24 0.01 99 1014.5
20260506143308 56 325 10.4 13.9 0.00 0.24 0.01 99 1014.6
20260506141808 57 311 10.4 17.4 0.00 0.24 0.01 98 1014.5
20260506141308 56 302 13.9 17.4 0.00 0.24 0.01 99 1014.6
20260506140807 56 338 11.3 15.6 0.00 0.24 0.01 100 1014.7
20260506135807 57 3 11.3 14.8 0.00 0.24 0.01 99 1014.7
20260506134308 58 326 11.3 13.9 0.00 0.25 0.01 95 1014.7
20260506133307 59 324 7.8 13.0 0.00 0.25 0.01 89 1014.5
20260506132307 62 38 7.8 13.0 0.00 0.25 0.01 79 1014.4
20260506131808 62 348 0.9 7.0 0.00 0.25 0.01 77 1014.4
20260506130808 61 103 3.5 10.4 0.00 0.25 0.01 81 1014.5
20260506125307 61 43 4.3 10.4 0.00 0.25 0.01 82 1014.6
20260506124808 61 36 4.3 7.0 0.00 0.25 0.01 87 1014.6
20260506123308 59 224 1.7 2.6 0.00 0.29 0.01 85 1014.9
20260506121808 58 77 5.2 8.7 0.00 0.29 0.01 88 1015.2
20260506121307 58 92 4.3 8.7 0.00 0.29 0.01 89 1015.2
20260506120807 58 112 3.5 6.1 0.00 0.30 0.01 88 1015.2
20260506115307 58 129 5.2 11.3 0.00 0.33 0.01 88 1015.3
20260506113808 59 88 4.3 10.4 0.00 0.35 0.01 90 1015.4
20260506112807 59 74 6.1 11.3 0.00 0.35 0.01 91 1015.5
20260506112307 58 127 2.6 8.7 0.00 0.35 0.01 92 1015.6
20260506110807 58 125 4.3 8.7 0.00 0.35 0.01 91 1015.7
20260506105807 58 135 4.3 10.4 0.00 0.35 0.01 97 1015.8
20260506104807 57 118 6.1 10.4 0.00 0.35 0.01 100 1015.8
20260506104307 57 83 5.2 10.4 0.00 0.35 0.01 100 1015.9
20260506102807 56 119 5.2 8.7 0.00 0.35 0.01 100 1016.2
20260506102309 55 111 5.2 7.8 0.00 0.35 0.01 100 1016.1
20260506101307 53 80 0.9 4.3 0.00 0.36 0.01 100 1016.2
20260506100307 53 135 0.9 4.3 0.00 0.39 0.01 100 1016.2
20260506095807 53 7 1.7 4.3 0.00 0.39 0.01 100 1016.1
20260506094307 53 295 5.2 7.8 0.00 0.39 0.01 100 1016.2
20260506093807 53 296 4.3 7.0 0.00 0.39 0.01 100 1016.2
20260506092307 53 291 4.3 8.7 0.00 0.39 0.01 100 1016.1
20260506091807 53 272 5.2 8.7 0.00 0.39 0.01 100 1016.2
20260506085307 54 221 1.7 5.2 0.00 0.39 0.01 100 1016.1
20260506084307 53 257 1.7 4.3 0.00 0.39 0.01 100 1016.2
20260506083807 52 262 1.7 4.3 0.00 0.39 0.01 100 1016.2
20260506083307 52 243 1.7 5.2 0.00 0.39 0.01 100 1016.2
20260506082807 51 179 2.6 5.2 0.00 0.39 0.01 100 1016.3
20260506082308 51 339 1.7 5.2 0.00 0.39 0.01 100 1016.3
20260506080807 50 54 2.6 5.2 0.00 0.39 0.01 100 1016.5
20260506080307 50 0 2.6 4.3 0.00 0.39 0.01 100 1016.5
20260506072307 48 339 2.6 4.3 0.00 0.42 0.01 100 1016.4
20260506071807 48 305 2.6 4.3 0.00 0.42 0.01 100 1016.4
20260506070807 48 56 0.9 2.6 0.00 0.42 0.01 100 1016.3
20260506062307 47 157 0.9 2.6 0.00 0.42 0.01 100 1016.1
20260506061807 47 203 0.9 2.6 0.00 0.42 0.01 100 1016.0
20260506061307 47 214 0.9 1.7 0.00 0.42 0.01 100 1016.0
20260506050806 46 320 0.9 1.7 0.00 0.42 0.01 100 1016.0
20260506050307 46 4 0.9 1.7 0.00 0.42 0.01 100 1015.9
20260506044807 46 11 0.9 1.7 0.00 0.42 0.01 100 1015.9
20260506044307 46 195 0.0 0.9 0.00 0.42 0.01 100 1016.0
20260506043807 47 173 0.9 0.9 0.00 0.42 0.01 100 1016.0
20260506043306 47 246 0.0 1.7 0.00 0.42 0.01 100 1016.0
20260506041307 46 259 0.9 1.7 0.00 0.42 0.01 100 1016.0
20260506040807 46 245 0.9 1.7 0.00 0.42 0.01 100 1016.1
20260506040307 46 11 0.0 1.7 0.00 0.42 0.01 100 1016.1
20260506035307 46 244 0.9 1.7 0.00 0.42 0.01 100 1016.0
20260506034807 46 190 0.9 2.6 0.00 0.42 0.01 100 1016.0
20260506033307 45 113 0.9 1.7 0.01 0.42 0.01 100 1016.1
20260506032807 45 137 0.9 2.6 0.01 0.42 0.01 100 1016.2
20260506031806 45 186 0.0 1.7 0.01 0.42 0.01 100 1016.2
20260506030307 45 153 0.9 4.3 0.01 0.42 0.01 100 1016.2
20260506025806 45 163 2.6 4.3 0.01 0.42 0.01 100 1016.2
20260506024807 44 151 1.7 2.6 0.01 0.42 0.01 100 1016.2
20260506024307 44 129 1.7 2.6 0.01 0.42 0.01 100 1016.2
20260506023307 44 114 0.9 1.7 0.00 0.41 0.00 100 1016.3
20260506022307 44 105 0.9 2.6 0.00 0.41 0.00 100 1016.2
20260506021307 44 152 1.7 2.6 0.00 0.41 0.00 100 1016.3